[[{"header":{"parameterUnit":"m.s-1","parameterCategory":1,"la1":30.2991,"la2":30.254,"lo1":-89.0895,"lo2":-89.0444,"dy":0.0017,"dx":0.0017,"nx":28,"ny":28,"refTime":"2024-06-10T21:00:00:Z","depth":0,"parameterNumber":2,"parameterNumberName":"U-component_of_WINDS"},"data":[0,0,0,0,0,0,0,0,0,0,0,0,0,0,0,0,0,0,0,0,0,0,0,0,0,0,0,0,0,0,0,0,0,0,0,0,0,0,0,0,0,0,0,0,0,0,0,0,0,0,0,0,0,0,0,0,0,0,-2.3479,-2.348,0,-2.3607,-2.3609,-2.361,-2.3594,-2.3591,-2.3589,-2.3587,-2.3721,-2.3726,-2.3731,0,0,0,0,0,0,0,0,0,0,0,0,0,-2.3218,-2.3223,-2.3478,-2.348,-2.3482,-2.3607,-2.3609,-2.3611,-2.3594,-2.3591,-2.3589,-2.3586,-2.3719,-2.3725,-2.3732,0,0,0,0,0,0,0,0,0,0,0,0,0,-2.3338,-2.3225,-2.3478,-2.3488,-2.3491,-2.3607,-2.3609,-2.3611,-2.3594,-2.3591,-2.3588,-2.3585,-2.3717,-2.3725,-2.3733,-2.3847,0,0,-2.3758,-2.3762,0,0,0,0,0,0,0,0,-2.3331,-2.3347,-2.3485,-2.3488,-2.3491,-2.3581,-2.3566,-2.369,-2.3595,-2.3555,-2.3587,-2.3584,-2.3677,-2.3688,-2.3719,-2.3854,-2.3859,-2.3759,-2.3764,-2.3767,-2.377,0,0,0,0,0,0,0,-2.3323,-2.3341,-2.3529,-2.3487,-2.3491,-2.3487,-2.35,-2.3589,-2.3632,-2.3558,-2.3557,-2.3573,-2.3678,-2.3711,-2.3722,-2.3861,-2.3759,-2.3766,-2.3771,-2.3774,-2.4094,-2.4098,0,0,0,0,0,0,-2.3312,-2.3335,-2.3525,-2.3533,-2.3401,-2.3494,-2.3509,-2.3555,-2.3631,-2.364,-2.3575,-2.3572,-2.3699,-2.3713,-2.3727,-2.3865,-2.3767,-2.3775,-2.378,-2.4091,-2.4095,-2.4099,0,0,0,0,0,0,-2.3306,-2.3329,-2.352,-2.3434,-2.3458,-2.3502,-2.3554,-2.3559,-2.3593,-2.3644,-2.3652,-2.3602,-2.3697,-2.3715,-2.3817,-2.387,-2.3779,-2.3786,-2.4087,-2.4092,-2.4097,-2.4143,0,0,0,0,0,0,-2.3299,-2.3327,-2.3371,-2.3435,-2.3463,-2.3608,-2.3557,-2.3564,-2.3607,-2.3604,-2.3671,-2.3679,-2.3696,-2.3805,-2.3825,-2.3879,-2.3793,-2.4082,-2.4089,-2.4095,-2.4137,-2.4149,-2.416,0,0,0,0,0,-2.3289,-2.3379,-2.3373,-2.3396,-2.3519,-2.3611,-2.3627,-2.3644,-2.3612,-2.3656,-2.3689,-2.3677,-2.386,-2.3815,-2.3838,-2.3896,-2.4079,-2.4087,-2.4095,-2.4132,-2.4147,-2.4159,0,0,0,0,0,0,-2.3321,-2.3388,-2.3382,-2.3495,-2.3548,-2.3608,-2.3665,-2.366,-2.3723,-2.3717,-2.3735,-2.3751,-2.3853,-2.3885,-2.3833,-2.401,-2.3965,-2.3978,-2.3986,-2.4,-2.4011,-2.4002,-2.38,0,0,0,0,0,-2.3341,-2.3411,-2.3465,-2.356,-2.3587,-2.3621,-2.3663,-2.3671,-2.3726,-2.3748,-2.3788,-2.3843,-2.3912,-2.3958,-2.4025,-2.4141,-2.4155,-2.4192,-2.4203,-2.4212,-2.4223,-2.4286,-2.4302,-2.4125,-2.4125,-2.4125,0,0,-2.3384,-2.3429,-2.3472,-2.3568,-2.3609,-2.3681,-2.364,-2.3718,-2.3771,-2.376,-2.3859,-2.389,-2.3951,-2.4061,-2.4111,-2.409,-2.4275,-2.4222,-2.4229,-2.4235,-2.4296,-2.4312,-2.4327,-2.4131,-2.413,-2.4129,0,0,-2.3498,-2.3539,-2.3622,-2.3664,-2.3727,-2.3749,-2.3769,-2.383,-2.385,-2.3949,-2.3942,-2.4005,-2.4125,-2.4169,-2.4207,-2.4336,-2.4327,-2.4357,-2.4417,-2.4477,-2.4491,-2.4504,-2.4549,-2.4565,-2.4368,-2.4368,-2.4368,0,-2.3543,-2.365,-2.3665,-2.3744,-2.3786,-2.3778,-2.3862,-2.3902,-2.3984,-2.4013,-2.3988,-2.4138,-2.4179,-2.4298,-2.4329,-2.436,-2.4383,-2.435,-2.4488,-2.4501,-2.4513,-2.4556,-2.4573,-2.4371,-2.4371,-2.4371,-2.437,0,-2.3702,-2.3776,-2.3836,-2.3914,-2.3963,-2.4043,-2.4071,-2.4118,-2.4122,-2.4146,-2.4246,-2.4295,-2.4371,-2.44,-2.4405,-2.4519,-2.4504,-2.4484,-2.4439,-2.4532,-2.4573,-2.459,-2.4376,-2.4375,-2.4374,-2.4373,0,0,-2.384,-2.3925,-2.3946,-2.3981,-2.405,-2.4107,-2.4187,-2.4261,-2.4301,-2.4358,-2.4425,-2.4525,-2.4506,-2.455,-2.4559,-2.4613,-2.471,-2.4585,-2.4587,-2.4606,-2.4838,-2.4852,-2.4872,-2.4704,-2.4708,-2.471,-2.4832,0,-2.396,-2.4101,-2.4117,-2.4242,-2.4311,-2.4304,-2.4373,-2.4422,-2.4447,-2.4509,-2.4537,-2.4607,-2.4577,-2.4603,-2.4656,-2.4687,-2.4757,-2.4678,-2.4767,-2.477,-2.4751,-2.4893,-2.4909,-2.5022,-2.4849,-2.4851,-2.4853,0,-2.412,-2.418,-2.4312,-2.4369,-2.4399,-2.4461,-2.4529,-2.4588,-2.4643,-2.4657,-2.4705,-2.4707,-2.4789,-2.4741,-2.4854,-2.48,-2.4837,-2.4858,-2.4863,-2.4871,-2.4817,-2.4905,-2.5059,-2.5075,-2.4879,-2.4877,-2.4875,0,-2.4207,-2.432,-2.4414,-2.4444,-2.4514,-2.4557,-2.4588,-2.464,-2.4683,-2.4743,-2.4771,-2.4839,-2.4877,-2.4929,-2.495,-2.4913,-2.5061,-2.5015,-2.5075,-2.5074,-2.5107,-2.5104,-2.5268,-2.5131,-2.5131,-2.5131,-2.513,0,-2.4339,-2.442,-2.4454,-2.4511,-2.4601,-2.4618,-2.4707,-2.4736,-2.4782,-2.4845,-2.4843,-2.4902,-2.4925,-2.4988,-2.5004,-2.5095,-2.5112,-2.5125,-2.5129,-2.5125,-2.5124,-2.515,-2.5142,-2.5135,-2.5134,-2.5133,-2.5132,0,-2.4452,-2.4477,-2.4579,-2.4636,-2.4652,-2.4716,-2.4764,-2.482,-2.4843,-2.4922,-2.4942,-2.4979,-2.5052,-2.5078,-2.5167,-2.5178,-2.5283,-2.528,-2.5264,-2.5264,-2.5322,-2.5316,-2.5508,-2.5533,-2.5381,-2.5382,-2.5383,0,-2.4534,-2.4596,-2.4659,-2.4701,-2.4733,-2.48,-2.4844,-2.4862,-2.4907,-2.4974,-2.5021,-2.5094,-2.5153,-2.527,-2.5305,-2.5373,-2.5371,-2.5434,-2.5382,-2.5376,-2.5371,-2.5367,-2.5373,-2.5443,-2.5445,-2.5446,-2.5447,0,-2.4678,-2.4687,-2.4749,-2.4816,-2.4867,-2.4921,-2.4973,-2.5007,-2.5033,-2.5083,-2.5158,-2.5204,-2.5294,-2.5366,-2.5435,-2.5467,-2.5461,-2.5463,-2.5481,-2.5478,-2.5465,-2.5472,-2.529,-2.5459,-2.5458,-2.5457,-2.5456,-2.5456,-2.4777,-2.4832,-2.4884,-2.4953,-2.4994,-2.5042,-2.5096,-2.5125,-2.5188,-2.5262,-2.5269,-2.5349,-2.5402,-2.5494,-2.5529,-2.5592,-2.5574,-2.5599,-2.5606,-2.5611,-2.5615,-2.5456,-2.5604,-2.5604,-2.5604,-2.5604,-2.5603,0,-2.492,-2.4953,-2.5016,-2.5088,-2.5142,-2.5132,-2.5188,-2.5234,-2.5304,-2.5353,-2.5411,-2.5496,-2.5565,-2.5605,-2.5674,-2.5716,-2.5716,-2.5734,-2.5731,-2.5738,-2.5627,-2.5605,-2.5733,-2.5733,-2.5733,-2.5733,-2.5733,-2.5733,-2.5001,-2.5091,-2.5106,-2.5217,-2.5249,-2.5327,-2.536,-2.5404,-2.5443,-2.5538,-2.5595,-2.562,-2.5665,-2.5737,-2.58,-2.581,-2.5835,-2.5855,-2.5863,-2.5759,-2.5746,-2.5733,-2.5712,-2.5861,-2.5861,-2.5968,-2.5969,-2.597]},{"header":{"parameterUnit":"m.s-1","parameterCategory":1,"la1":30.2991,"la2":30.254,"lo1":-89.0895,"lo2":-89.0444,"dy":0.0017,"dx":0.0017,"nx":28,"ny":28,"refTime":"2024-06-10T21:00:00:Z","depth":0,"parameterNumber":3,"parameterNumberName":"V-component_of_WINDS"},"data":[0,0,0,0,0,0,0,0,0,0,0,0,0,0,0,0,0,0,0,0,0,0,0,0,0,0,0,0,0,0,0,0,0,0,0,0,0,0,0,0,0,0,0,0,0,0,0,0,0,0,0,0,0,0,0,0,0,0,-2.7877,-2.7877,0,-2.7951,-2.7952,-2.7953,-2.7947,-2.7946,-2.7945,-2.7943,-2.8016,-2.8019,-2.8022,0,0,0,0,0,0,0,0,0,0,0,0,0,-2.7725,-2.7727,-2.7876,-2.7877,-2.7878,-2.7951,-2.7952,-2.7953,-2.7947,-2.7946,-2.7944,-2.7943,-2.8015,-2.8019,-2.8023,0,0,0,0,0,0,0,0,0,0,0,0,0,-2.7794,-2.7728,-2.7876,-2.7884,-2.7886,-2.7951,-2.7952,-2.7953,-2.7947,-2.7946,-2.7944,-2.7942,-2.8014,-2.8019,-2.8023,-2.8084,0,0,-2.8037,-2.8039,0,0,0,0,0,0,0,0,-2.779,-2.78,-2.7882,-2.7884,-2.7886,-2.7938,-2.7925,-2.7997,-2.7948,-2.7924,-2.7943,-2.7941,-2.7991,-2.7998,-2.8015,-2.8088,-2.8091,-2.8037,-2.804,-2.8042,-2.8043,0,0,0,0,0,0,0,-2.7785,-2.7796,-2.7906,-2.7883,-2.7885,-2.7883,-2.7891,-2.7939,-2.7966,-2.7926,-2.7925,-2.7935,-2.7992,-2.8011,-2.8017,-2.8092,-2.8037,-2.8041,-2.8044,-2.8045,-2.8216,-2.8218,0,0,0,0,0,0,-2.7779,-2.7792,-2.7904,-2.7908,-2.7833,-2.7887,-2.7896,-2.7923,-2.7965,-2.797,-2.7936,-2.7934,-2.8004,-2.8012,-2.8019,-2.8093,-2.8042,-2.8046,-2.8048,-2.8214,-2.8217,-2.8219,0,0,0,0,0,0,-2.7776,-2.7789,-2.7901,-2.785,-2.7864,-2.7891,-2.7922,-2.7925,-2.7944,-2.7973,-2.7978,-2.7951,-2.8003,-2.8013,-2.8068,-2.8095,-2.8048,-2.8052,-2.8212,-2.8215,-2.8218,-2.8241,0,0,0,0,0,0,-2.7772,-2.7788,-2.7813,-2.7851,-2.7867,-2.7949,-2.7923,-2.7928,-2.7952,-2.795,-2.7988,-2.7993,-2.8003,-2.8061,-2.8072,-2.8101,-2.8055,-2.821,-2.8213,-2.8217,-2.8238,-2.8244,-2.8249,0,0,0,0,0,-2.7766,-2.7816,-2.7814,-2.7827,-2.7898,-2.7951,-2.796,-2.7971,-2.7955,-2.7979,-2.7997,-2.7991,-2.8091,-2.8067,-2.8079,-2.8109,-2.8208,-2.8212,-2.8216,-2.8235,-2.8243,-2.8249,0,0,0,0,0,0,-2.7779,-2.7821,-2.7819,-2.7883,-2.7914,-2.795,-2.7981,-2.7979,-2.8014,-2.8011,-2.8022,-2.8031,-2.8086,-2.8103,-2.8076,-2.817,-2.8147,-2.8154,-2.8157,-2.8164,-2.817,-2.8164,-2.8059,0,0,0,0,0,-2.779,-2.783,-2.7864,-2.7916,-2.7932,-2.7954,-2.7977,-2.7983,-2.8015,-2.8027,-2.805,-2.8079,-2.8117,-2.8142,-2.8178,-2.824,-2.8247,-2.8267,-2.8272,-2.8277,-2.8283,-2.8315,-2.8324,-2.8232,-2.8232,-2.8232,0,0,-2.7811,-2.7839,-2.7864,-2.792,-2.7944,-2.7984,-2.7965,-2.8008,-2.8037,-2.8033,-2.8087,-2.8104,-2.8138,-2.8196,-2.8223,-2.8212,-2.8309,-2.8282,-2.8286,-2.8289,-2.832,-2.8329,-2.8336,-2.8235,-2.8235,-2.8234,0,0,-2.7871,-2.7897,-2.7943,-2.7968,-2.8005,-2.8019,-2.803,-2.8067,-2.8078,-2.8132,-2.8129,-2.8164,-2.8229,-2.8253,-2.8273,-2.8341,-2.8336,-2.8352,-2.8383,-2.8414,-2.8421,-2.8428,-2.8451,-2.8459,-2.8358,-2.8358,-2.8358,0,-2.7893,-2.7954,-2.7967,-2.801,-2.8034,-2.8034,-2.8079,-2.8102,-2.8149,-2.8165,-2.8153,-2.8234,-2.8257,-2.832,-2.8336,-2.8353,-2.8365,-2.8348,-2.842,-2.8426,-2.8432,-2.8454,-2.8463,-2.836,-2.8359,-2.8359,-2.8359,0,-2.7978,-2.8021,-2.8054,-2.81,-2.8128,-2.8172,-2.819,-2.8216,-2.8219,-2.8234,-2.8288,-2.8315,-2.8356,-2.8372,-2.8376,-2.8435,-2.8427,-2.8417,-2.8394,-2.8442,-2.8463,-2.8472,-2.8362,-2.8361,-2.8361,-2.836,0,0,-2.8049,-2.8101,-2.8112,-2.8133,-2.8173,-2.8206,-2.8249,-2.8291,-2.8312,-2.8345,-2.838,-2.8435,-2.8426,-2.8449,-2.8455,-2.8483,-2.8533,-2.8469,-2.847,-2.8479,-2.8599,-2.8605,-2.8615,-2.8531,-2.8532,-2.8534,-2.8595,0,-2.8112,-2.8191,-2.8202,-2.8271,-2.831,-2.8309,-2.8347,-2.8375,-2.839,-2.8423,-2.8439,-2.8477,-2.8463,-2.8476,-2.8504,-2.8521,-2.8557,-2.8517,-2.8562,-2.8564,-2.8553,-2.8626,-2.8634,-2.8691,-2.8604,-2.8605,-2.8606,0,-2.8196,-2.8231,-2.8304,-2.8338,-2.8355,-2.8389,-2.8427,-2.846,-2.8491,-2.8499,-2.8525,-2.8528,-2.8571,-2.8547,-2.8606,-2.8578,-2.8598,-2.8609,-2.8611,-2.8615,-2.8587,-2.8631,-2.871,-2.8718,-2.8619,-2.8618,-2.8617,0,-2.8238,-2.8303,-2.8355,-2.8373,-2.8415,-2.8438,-2.8456,-2.8486,-2.851,-2.8543,-2.8558,-2.8595,-2.8615,-2.8643,-2.8654,-2.8636,-2.8713,-2.8689,-2.8719,-2.8719,-2.8735,-2.8734,-2.8817,-2.8749,-2.8749,-2.8749,-2.8749,0,-2.8307,-2.8351,-2.8375,-2.8406,-2.8455,-2.8468,-2.8516,-2.8533,-2.8559,-2.8593,-2.8594,-2.8626,-2.864,-2.8673,-2.8682,-2.8729,-2.8738,-2.8745,-2.8747,-2.8745,-2.8743,-2.8757,-2.8752,-2.8751,-2.8751,-2.875,-2.875,0,-2.8362,-2.838,-2.8436,-2.8471,-2.8481,-2.8515,-2.8544,-2.8574,-2.8589,-2.8631,-2.8642,-2.8664,-2.8703,-2.8717,-2.8765,-2.8771,-2.8824,-2.8823,-2.8814,-2.8814,-2.8843,-2.884,-2.8937,-2.8949,-2.8874,-2.8875,-2.8876,0,-2.8404,-2.8438,-2.8477,-2.85,-2.852,-2.8557,-2.8581,-2.8594,-2.8619,-2.8657,-2.8682,-2.8721,-2.8753,-2.8815,-2.8834,-2.887,-2.8869,-2.89,-2.8874,-2.887,-2.8868,-2.8865,-2.8868,-2.8905,-2.8905,-2.8906,-2.8907,0,-2.8477,-2.8484,-2.8519,-2.8558,-2.8587,-2.8617,-2.8647,-2.8666,-2.8683,-2.871,-2.8751,-2.8776,-2.8824,-2.8862,-2.8899,-2.8916,-2.8913,-2.8915,-2.8923,-2.8921,-2.8914,-2.8917,-2.8826,-2.8912,-2.8912,-2.8911,-2.8911,-2.8911,-2.8526,-2.8556,-2.8588,-2.8627,-2.865,-2.8678,-2.8707,-2.8725,-2.876,-2.8801,-2.8806,-2.8849,-2.8878,-2.8927,-2.8945,-2.8978,-2.8969,-2.8982,-2.8985,-2.8988,-2.8989,-2.8909,-2.8985,-2.8985,-2.8984,-2.8984,-2.8984,0,-2.8598,-2.8618,-2.8654,-2.8695,-2.8726,-2.8722,-2.8755,-2.878,-2.8818,-2.8846,-2.8877,-2.8922,-2.8959,-2.8981,-2.9018,-2.9039,-2.9039,-2.9048,-2.9046,-2.905,-2.8996,-2.8984,-2.9048,-2.9048,-2.9048,-2.9048,-2.9048,-2.9048,-2.8638,-2.8688,-2.8699,-2.876,-2.8779,-2.8822,-2.8841,-2.8865,-2.8887,-2.8938,-2.8969,-2.8984,-2.9009,-2.9047,-2.908,-2.9085,-2.9098,-2.9107,-2.9112,-2.906,-2.9054,-2.9048,-2.9037,-2.911,-2.9111,-2.9163,-2.9164,-2.9164]}]]